Date,TemperatureHighF,TemperatureAvgF,TemperatureLowF,DewpointHighF,DewpointAvgF,DewpointLowF,HumidityHigh,HumidityAvg,HumidityLow,PressureMaxIn,PressureMinIn,WindSpeedMaxMPH,WindSpeedAvgMPH,GustSpeedMaxMPH,PrecipitationSumIn
2013-2-1,70,54,42,45,40,33,92,65,26,0.00,40.00,9,4,15,0.00
2013-2-2,74,56,40,53,47,39,97,76,39,0.00,40.00,8,5,16,0.00
2013-2-3,73,56,44,53,41,28,97,67,19,0.00,40.00,6,4,15,0.00
2013-2-4,65,54,44,61,52,42,98,92,75,0.00,40.00,6,3,12,0.04
2013-2-5,79,64,59,65,61,58,99,90,56,0.00,40.00,6,3,11,0.18
2013-2-6,63,59,56,62,58,55,99,98,95,0.00,40.00,9,4,17,0.78
2013-2-7,69,60,55,62,58,55,99,92,77,0.00,40.00,5,3,11,0.19
2013-2-8,64,58,50,59,54,48,99,84,64,0.00,40.00,8,6,19,0.00
2013-2-9,65,54,44,61,51,43,98,90,79,0.00,40.00,9,6,21,0.00
2013-2-10,72,64,60,69,62,58,98,93,85,0.00,40.00,11,5,31,0.47
2013-2-11,60,54,51,59,52,49,98,95,85,0.00,40.00,10,7,20,0.85
2013-2-12,60,55,52,59,54,51,99,96,93,0.00,40.00,9,5,15,0.27
2013-2-13,60,51,41,51,42,38,95,75,46,0.00,40.00,11,6,22,0.04
2013-2-14,66,48,33,43,37,32,98,72,32,0.00,40.00,5,4,9,0.00
2013-2-15,69,49,35,46,38,34,98,72,32,0.00,40.00,9,5,20,0.00
2013-2-16,60,46,35,34,27,20,91,52,26,0.00,40.00,11,6,22,0.00
2013-2-17,70,49,33,45,38,31,93,70,32,0.00,40.00,12,6,21,0.00
2013-2-18,70,62,47,63,56,45,96,82,62,0.00,40.00,17,8,32,1.88
2013-2-19,68,53,42,56,40,30,97,68,25,0.00,40.00,9,6,19,0.95
2013-2-20,61,53,46,40,35,23,72,52,28,0.00,40.00,11,7,21,0.00
2013-2-21,72,62,54,70,57,40,98,85,54,0.00,40.00,13,7,29,0.16
2013-2-22,64,56,52,58,52,49,99,85,62,0.00,40.00,7,6,15,0.01
2013-2-23,71,55,46,49,46,43,91,73,39,0.00,40.00,8,5,16,0.01
2013-2-24,71,55,40,50,45,39,96,72,41,0.00,40.00,9,5,15,0.00
2013-2-25,75,63,49,69,50,28,97,68,23,0.00,40.00,18,7,31,0.11
2013-2-26,65,50,44,41,34,29,80,55,32,0.00,40.00,19,9,34,0.01
2013-2-27,74,54,38,47,38,28,96,61,25,0.00,40.00,16,6,30,0.00
2013-2-28,56,46,38,34,30,28,76,55,36,0.00,40.00,8,5,19,0.00